owner,sensor,date,latitude,longitude,vertical_datum,wind_speed,wind_to_direction,wind_speed_of_gust,qcFlag 
TCOON,ioos:station:TCOON:057:1,2012-09-01T00:00:00Z,28.4460,-96.3961,0.0,8.7,160.0,,'1111122,1111122,1111122' 
TCOON,ioos:station:TCOON:057:1,2012-09-01T01:00:00Z,28.4460,-96.3961,0.0,8.7,150.0,,'1111122,1111122,1111122' 
TCOON,ioos:station:TCOON:057:1,2012-09-01T02:00:00Z,28.4460,-96.3961,0.0,8.2,150.0,,'1111122,1111122,1111122' 
TCOON,ioos:station:TCOON:057:1,2012-09-01T03:00:00Z,28.4460,-96.3961,0.0,7.2,150.0,,'1111122,1111122,1111122' 
TCOON,ioos:station:TCOON:057:1,2012-09-01T04:00:00Z,28.4460,-96.3961,0.0,7.2,160.0,,'1111122,1111122,1111122' 
TCOON,ioos:station:TCOON:057:1,2012-09-01T05:00:00Z,28.4460,-96.3961,0.0,8.7,170.0,,'1111122,1111122,1111122' 
TCOON,ioos:station:TCOON:057:1,2012-09-01T06:00:00Z,28.4460,-96.3961,0.0,8.7,180.0,,'1111122,1111122,1111122' 
TCOON,ioos:station:TCOON:057:1,2012-09-01T07:00:00Z,28.4460,-96.3961,0.0,8.7,180.0,,'1111122,1111122,1111122' 
TCOON,ioos:station:TCOON:057:1,2012-09-01T08:00:00Z,28.4460,-96.3961,0.0,9.3,180.0,,'1111122,1111122,1111122' 
TCOON,ioos:station:TCOON:057:1,2012-09-01T09:00:00Z,28.4460,-96.3961,0.0,9.5,183.0,11.1,'11111222,11111222,11111222' 
TCOON,ioos:station:TCOON:057:1,2012-09-01T10:00:00Z,28.4460,-96.3961,0.0,8.6,184.0,9.6,'11111222,11111222,11111222' 
TCOON,ioos:station:TCOON:057:1,2012-09-01T11:00:00Z,28.4460,-96.3961,0.0,7.0,183.0,8.6,'11111222,11111222,11111222' 
TCOON,ioos:station:TCOON:057:1,2012-09-01T12:00:00Z,28.4460,-96.3961,0.0,7.1,176.0,8.0,'11111222,11111222,11111222' 
TCOON,ioos:station:TCOON:057:1,2012-09-01T13:00:00Z,28.4460,-96.3961,0.0,6.8,172.0,7.3,'11111222,11111222,11111222' 
TCOON,ioos:station:TCOON:057:1,2012-09-01T14:00:00Z,28.4460,-96.3961,0.0,6.2,180.0,,'1111122,1111122,1111122' 
TCOON,ioos:station:TCOON:057:1,2012-09-01T15:00:00Z,28.4460,-96.3961,0.0,8.7,150.0,,'1111122,1111122,1111122' 
TCOON,ioos:station:TCOON:057:1,2012-09-01T16:00:00Z,28.4460,-96.3961,0.0,8.2,170.0,,'1111122,1111122,1111122' 
TCOON,ioos:station:TCOON:057:1,2012-09-01T17:00:00Z,28.4460,-96.3961,0.0,2.6,240.0,,'1111122,1111122,1111122' 
TCOON,ioos:station:TCOON:057:1,2012-09-01T18:00:00Z,28.4460,-96.3961,0.0,4.1,150.0,,'1111122,1111122,1111122' 
TCOON,ioos:station:TCOON:057:1,2012-09-01T19:00:00Z,28.4460,-96.3961,0.0,3.1,180.0,,'1111122,1111122,1111122' 
TCOON,ioos:station:TCOON:057:1,2012-09-01T20:00:00Z,28.4460,-96.3961,0.0,3.6,190.0,,'1111122,1111122,1111122' 
TCOON,ioos:station:TCOON:057:1,2012-09-01T21:00:00Z,28.4460,-96.3961,0.0,5.1,180.0,,'1111122,1111122,1111122' 
TCOON,ioos:station:TCOON:057:1,2012-09-01T22:00:00Z,28.4460,-96.3961,0.0,4.6,170.0,,'1111122,1111122,1111122' 
TCOON,ioos:station:TCOON:057:1,2012-09-01T23:00:00Z,28.4460,-96.3961,0.0,4.1,170.0,,'1111122,1111122,1111122' 
TCOON,ioos:station:TCOON:057:1,2012-09-02T00:00:00Z,28.4460,-96.3961,0.0,3.6,130.0,,'1111122,1111122,1111122' 
TCOON,ioos:station:TCOON:057:1,2012-09-02T01:00:00Z,28.4460,-96.3961,0.0,5.7,150.0,,'1111122,1111122,1111122' 
TCOON,ioos:station:TCOON:057:1,2012-09-02T02:00:00Z,28.4460,-96.3961,0.0,6.7,160.0,,'1111122,1111122,1111122' 
TCOON,ioos:station:TCOON:057:1,2012-09-02T03:00:00Z,28.4460,-96.3961,0.0,6.7,180.0,,'1111122,1111122,1111122' 
TCOON,ioos:station:TCOON:057:1,2012-09-02T04:00:00Z,28.4460,-96.3961,0.0,6.2,180.0,,'1111122,1111122,1111122' 
TCOON,ioos:station:TCOON:057:1,2012-09-02T05:00:00Z,28.4460,-96.3961,0.0,6.7,190.0,,'1111122,1111122,1111122' 
TCOON,ioos:station:TCOON:057:1,2012-09-02T06:00:00Z,28.4460,-96.3961,0.0,6.2,180.0,,'1111122,1111122,1111122' 
TCOON,ioos:station:TCOON:057:1,2012-09-02T07:00:00Z,28.4460,-96.3961,0.0,7.2,180.0,,'1111122,1111122,1111122' 
TCOON,ioos:station:TCOON:057:1,2012-09-02T08:00:00Z,28.4460,-96.3961,0.0,7.2,180.0,,'1111122,1111122,1111122' 
TCOON,ioos:station:TCOON:057:1,2012-09-02T09:00:00Z,28.4460,-96.3961,0.0,6.2,190.0,,'1111122,1111122,1111122' 
TCOON,ioos:station:TCOON:057:1,2012-09-02T10:00:00Z,28.4460,-96.3961,0.0,5.1,200.0,,'1111122,1111122,1111122' 
TCOON,ioos:station:TCOON:057:1,2012-09-02T11:00:00Z,28.4460,-96.3961,0.0,4.6,200.0,,'1111122,1111122,1111122' 
TCOON,ioos:station:TCOON:057:1,2012-09-02T12:00:00Z,28.4460,-96.3961,0.0,5.1,200.0,,'1111122,1111122,1111122' 
TCOON,ioos:station:TCOON:057:1,2012-09-02T13:00:00Z,28.4460,-96.3961,0.0,5.7,200.0,,'1111122,1111122,1111122' 
TCOON,ioos:station:TCOON:057:1,2012-09-02T14:00:00Z,28.4460,-96.3961,0.0,5.7,210.0,,'1111122,1111122,1111122' 
TCOON,ioos:station:TCOON:057:1,2012-09-02T15:00:00Z,28.4460,-96.3961,0.0,4.6,200.0,,'1111122,1111122,1111122' 
TCOON,ioos:station:TCOON:057:1,2012-09-02T16:00:00Z,28.4460,-96.3961,0.0,6.2,190.0,,'1111122,1111122,1111122' 
TCOON,ioos:station:TCOON:057:1,2012-09-02T17:00:00Z,28.4460,-96.3961,0.0,5.1,190.0,,'1111122,1111122,1111122' 
TCOON,ioos:station:TCOON:057:1,2012-09-02T18:00:00Z,28.4460,-96.3961,0.0,5.1,170.0,,'1111122,1111122,1111122' 
TCOON,ioos:station:TCOON:057:1,2012-09-02T19:00:00Z,28.4460,-96.3961,0.0,6.2,170.0,,'1111122,1111122,1111122' 
TCOON,ioos:station:TCOON:057:1,2012-09-02T20:00:00Z,28.4460,-96.3961,0.0,5.7,180.0,,'1111122,1111122,1111122' 
TCOON,ioos:station:TCOON:057:1,2012-09-02T21:00:00Z,28.4460,-96.3961,0.0,6.2,170.0,,'1111122,1111122,1111122' 
TCOON,ioos:station:TCOON:057:1,2012-09-02T22:00:00Z,28.4460,-96.3961,0.0,5.1,170.0,,'1111122,1111122,1111122' 
TCOON,ioos:station:TCOON:057:1,2012-09-02T23:00:00Z,28.4460,-96.3961,0.0,5.7,170.0,,'1111122,1111122,1111122' 
TCOON,ioos:station:TCOON:057:1,2012-09-03T00:00:00Z,28.4460,-96.3961,0.0,6.2,170.0,,'1111122,1111122,1111122' 
TCOON,ioos:station:TCOON:057:1,2012-09-03T01:00:00Z,28.4460,-96.3961,0.0,7.2,170.0,,'1111122,1111122,1111122' 
TCOON,ioos:station:TCOON:057:1,2012-09-03T02:00:00Z,28.4460,-96.3961,0.0,8.2,170.0,,'1111122,1111122,1111122' 
TCOON,ioos:station:TCOON:057:1,2012-09-03T03:00:00Z,28.4460,-96.3961,0.0,7.7,180.0,,'1111122,1111122,1111122' 
TCOON,ioos:station:TCOON:057:1,2012-09-03T04:00:00Z,28.4460,-96.3961,0.0,7.7,180.0,,'1111122,1111122,1111122' 
TCOON,ioos:station:TCOON:057:1,2012-09-03T05:00:00Z,28.4460,-96.3961,0.0,6.7,180.0,,'1111122,1111122,1111122' 
TCOON,ioos:station:TCOON:057:1,2012-09-03T06:00:00Z,28.4460,-96.3961,0.0,7.7,170.0,,'1111122,1111122,1111122' 
TCOON,ioos:station:TCOON:057:1,2012-09-03T07:00:00Z,28.4460,-96.3961,0.0,8.7,180.0,,'1111122,1111122,1111122' 
TCOON,ioos:station:TCOON:057:1,2012-09-03T08:00:00Z,28.4460,-96.3961,0.0,7.7,190.0,,'1111122,1111122,1111122' 
TCOON,ioos:station:TCOON:057:1,2012-09-03T09:00:00Z,28.4460,-96.3961,0.0,9.3,180.0,,'1111122,1111122,1111122' 
TCOON,ioos:station:TCOON:057:1,2012-09-03T10:00:00Z,28.4460,-96.3961,0.0,7.7,190.0,,'1111122,1111122,1111122' 
TCOON,ioos:station:TCOON:057:1,2012-09-03T11:00:00Z,28.4460,-96.3961,0.0,6.2,180.0,,'1111122,1111122,1111122' 
TCOON,ioos:station:TCOON:057:1,2012-09-03T12:00:00Z,28.4460,-96.3961,0.0,6.2,200.0,,'1111122,1111122,1111122' 
TCOON,ioos:station:TCOON:057:1,2012-09-03T13:00:00Z,28.4460,-96.3961,0.0,4.1,210.0,,'1111122,1111122,1111122' 
TCOON,ioos:station:TCOON:057:1,2012-09-03T14:00:00Z,28.4460,-96.3961,0.0,6.7,190.0,,'1111122,1111122,1111122' 
TCOON,ioos:station:TCOON:057:1,2012-09-03T15:00:00Z,28.4460,-96.3961,0.0,6.2,190.0,,'1111122,1111122,1111122' 
TCOON,ioos:station:TCOON:057:1,2012-09-03T16:00:00Z,28.4460,-96.3961,0.0,6.7,190.0,,'1111122,1111122,1111122' 
TCOON,ioos:station:TCOON:057:1,2012-09-03T17:00:00Z,28.4460,-96.3961,0.0,6.2,170.0,,'1111122,1111122,1111122' 
TCOON,ioos:station:TCOON:057:1,2012-09-03T18:00:00Z,28.4460,-96.3961,0.0,6.2,180.0,,'1111122,1111122,1111122' 
TCOON,ioos:station:TCOON:057:1,2012-09-03T19:00:00Z,28.4460,-96.3961,0.0,6.2,180.0,,'1111122,1111122,1111122' 
TCOON,ioos:station:TCOON:057:1,2012-09-03T20:00:00Z,28.4460,-96.3961,0.0,6.7,170.0,,'1111122,1111122,1111122' 
TCOON,ioos:station:TCOON:057:1,2012-09-03T21:00:00Z,28.4460,-96.3961,0.0,6.2,180.0,,'1111122,1111122,1111122' 
TCOON,ioos:station:TCOON:057:1,2012-09-03T22:00:00Z,28.4460,-96.3961,0.0,6.2,180.0,,'1111122,1111122,1111122' 
TCOON,ioos:station:TCOON:057:1,2012-09-03T23:00:00Z,28.4460,-96.3961,0.0,7.7,180.0,,'1111122,1111122,1111122' 
TCOON,ioos:station:TCOON:057:1,2012-09-04T00:00:00Z,28.4460,-96.3961,0.0,8.2,170.0,,'1111122,1111122,1111122' 
TCOON,ioos:station:TCOON:057:1,2012-09-04T01:00:00Z,28.4460,-96.3961,0.0,8.2,160.0,,'1111122,1111122,1111122' 
TCOON,ioos:station:TCOON:057:1,2012-09-04T02:00:00Z,28.4460,-96.3961,0.0,8.2,160.0,,'1111122,1111122,1111122' 
TCOON,ioos:station:TCOON:057:1,2012-09-04T03:00:00Z,28.4460,-96.3961,0.0,8.7,160.0,,'1111122,1111122,1111122' 
TCOON,ioos:station:TCOON:057:1,2012-09-04T04:00:00Z,28.4460,-96.3961,0.0,9.3,170.0,,'1111122,1111122,1111122' 
TCOON,ioos:station:TCOON:057:1,2012-09-04T05:00:00Z,28.4460,-96.3961,0.0,9.3,190.0,,'1111122,1111122,1111122' 
TCOON,ioos:station:TCOON:057:1,2012-09-04T06:00:00Z,28.4460,-96.3961,0.0,8.7,180.0,,'1111122,1111122,1111122' 
TCOON,ioos:station:TCOON:057:1,2012-09-04T07:00:00Z,28.4460,-96.3961,0.0,6.2,200.0,,'1111122,1111122,1111122' 
TCOON,ioos:station:TCOON:057:1,2012-09-04T08:00:00Z,28.4460,-96.3961,0.0,6.7,200.0,,'1111122,1111122,1111122' 
TCOON,ioos:station:TCOON:057:1,2012-09-04T09:00:00Z,28.4460,-96.3961,0.0,6.2,200.0,,'1111122,1111122,1111122' 
TCOON,ioos:station:TCOON:057:1,2012-09-04T10:00:00Z,28.4460,-96.3961,0.0,6.2,200.0,,'1111122,1111122,1111122' 
TCOON,ioos:station:TCOON:057:1,2012-09-04T11:00:00Z,28.4460,-96.3961,0.0,4.6,210.0,,'1111122,1111122,1111122' 
TCOON,ioos:station:TCOON:057:1,2012-09-04T12:00:00Z,28.4460,-96.3961,0.0,5.1,200.0,,'1111122,1111122,1111122' 
TCOON,ioos:station:TCOON:057:1,2012-09-04T13:00:00Z,28.4460,-96.3961,0.0,3.1,210.0,,'1111122,1111122,1111122' 
TCOON,ioos:station:TCOON:057:1,2012-09-04T14:00:00Z,28.4460,-96.3961,0.0,5.7,190.0,,'1111122,1111122,1111122' 
TCOON,ioos:station:TCOON:057:1,2012-09-04T15:00:00Z,28.4460,-96.3961,0.0,5.1,200.0,,'1111122,1111122,1111122' 
TCOON,ioos:station:TCOON:057:1,2012-09-04T16:00:00Z,28.4460,-96.3961,0.0,5.1,220.0,,'1111122,1111122,1111122' 
TCOON,ioos:station:TCOON:057:1,2012-09-04T17:00:00Z,28.4460,-96.3961,0.0,4.1,210.0,,'1111122,1111122,1111122' 
TCOON,ioos:station:TCOON:057:1,2012-09-04T18:00:00Z,28.4460,-96.3961,0.0,6.2,180.0,,'1111122,1111122,1111122' 
TCOON,ioos:station:TCOON:057:1,2012-09-04T19:00:00Z,28.4460,-96.3961,0.0,6.2,170.0,,'1111122,1111122,1111122' 
TCOON,ioos:station:TCOON:057:1,2012-09-04T20:00:00Z,28.4460,-96.3961,0.0,6.7,170.0,,'1111122,1111122,1111122' 
TCOON,ioos:station:TCOON:057:1,2012-09-04T21:00:00Z,28.4460,-96.3961,0.0,6.2,170.0,,'1111122,1111122,1111122' 
TCOON,ioos:station:TCOON:057:1,2012-09-04T22:00:00Z,28.4460,-96.3961,0.0,5.7,170.0,,'1111122,1111122,1111122' 
TCOON,ioos:station:TCOON:057:1,2012-09-04T23:00:00Z,28.4460,-96.3961,0.0,6.2,180.0,,'1111122,1111122,1111122' 
TCOON,ioos:station:TCOON:057:1,2012-09-05T00:00:00Z,28.4460,-96.3961,0.0,6.7,180.0,,'1111122,1111122,1111122' 
TCOON,ioos:station:TCOON:057:1,2012-09-05T01:00:00Z,28.4460,-96.3961,0.0,7.7,160.0,,'1111122,1111122,1111122' 
TCOON,ioos:station:TCOON:057:1,2012-09-05T02:00:00Z,28.4460,-96.3961,0.0,7.7,170.0,,'1111122,1111122,1111122' 
TCOON,ioos:station:TCOON:057:1,2012-09-05T03:00:00Z,28.4460,-96.3961,0.0,8.2,160.0,,'1111122,1111122,1111122' 
TCOON,ioos:station:TCOON:057:1,2012-09-05T04:00:00Z,28.4460,-96.3961,0.0,8.2,180.0,,'1111122,1111122,1111122' 
TCOON,ioos:station:TCOON:057:1,2012-09-05T05:00:00Z,28.4460,-96.3961,0.0,8.7,180.0,,'1111122,1111122,1111122' 
TCOON,ioos:station:TCOON:057:1,2012-09-05T06:00:00Z,28.4460,-96.3961,0.0,8.2,190.0,,'1111122,1111122,1111122' 
TCOON,ioos:station:TCOON:057:1,2012-09-05T07:00:00Z,28.4460,-96.3961,0.0,8.2,190.0,,'1111122,1111122,1111122' 
TCOON,ioos:station:TCOON:057:1,2012-09-05T08:00:00Z,28.4460,-96.3961,0.0,5.7,200.0,,'1111122,1111122,1111122' 
TCOON,ioos:station:TCOON:057:1,2012-09-05T09:00:00Z,28.4460,-96.3961,0.0,5.1,210.0,,'1111122,1111122,1111122' 
TCOON,ioos:station:TCOON:057:1,2012-09-05T10:00:00Z,28.4460,-96.3961,0.0,5.7,200.0,,'1111122,1111122,1111122' 
TCOON,ioos:station:TCOON:057:1,2012-09-05T11:00:00Z,28.4460,-96.3961,0.0,4.1,210.0,,'1111122,1111122,1111122' 
TCOON,ioos:station:TCOON:057:1,2012-09-05T12:00:00Z,28.4460,-96.3961,0.0,4.1,210.0,,'1111122,1111122,1111122' 
TCOON,ioos:station:TCOON:057:1,2012-09-05T13:00:00Z,28.4460,-96.3961,0.0,3.1,210.0,,'1111122,1111122,1111122' 
TCOON,ioos:station:TCOON:057:1,2012-09-05T14:00:00Z,28.4460,-96.3961,0.0,4.6,230.0,,'1111122,1111122,1111122' 
TCOON,ioos:station:TCOON:057:1,2012-09-05T15:00:00Z,28.4460,-96.3961,0.0,5.7,230.0,,'1111122,1111122,1111122' 
TCOON,ioos:station:TCOON:057:1,2012-09-05T16:00:00Z,28.4460,-96.3961,0.0,4.6,210.0,,'1111122,1111122,1111122' 
TCOON,ioos:station:TCOON:057:1,2012-09-05T17:00:00Z,28.4460,-96.3961,0.0,4.6,210.0,,'1111122,1111122,1111122' 
TCOON,ioos:station:TCOON:057:1,2012-09-05T18:00:00Z,28.4460,-96.3961,0.0,5.1,200.0,,'1111122,1111122,1111122' 
TCOON,ioos:station:TCOON:057:1,2012-09-05T19:00:00Z,28.4460,-96.3961,0.0,6.2,180.0,,'1111122,1111122,1111122' 
TCOON,ioos:station:TCOON:057:1,2012-09-05T20:00:00Z,28.4460,-96.3961,0.0,6.2,170.0,,'1111122,1111122,1111122' 
TCOON,ioos:station:TCOON:057:1,2012-09-05T21:00:00Z,28.4460,-96.3961,0.0,5.1,170.0,,'1111122,1111122,1111122' 
TCOON,ioos:station:TCOON:057:1,2012-09-05T22:00:00Z,28.4460,-96.3961,0.0,6.7,170.0,,'1111122,1111122,1111122' 
TCOON,ioos:station:TCOON:057:1,2012-09-05T23:00:00Z,28.4460,-96.3961,0.0,6.2,170.0,,'1111122,1111122,1111122' 
TCOON,ioos:station:TCOON:057:1,2012-09-06T00:00:00Z,28.4460,-96.3961,0.0,6.2,170.0,,'1111122,1111122,1111122' 
TCOON,ioos:station:TCOON:057:1,2012-09-06T01:00:00Z,28.4460,-96.3961,0.0,6.2,160.0,,'1111122,1111122,1111122' 
TCOON,ioos:station:TCOON:057:1,2012-09-06T02:00:00Z,28.4460,-96.3961,0.0,7.2,170.0,,'1111122,1111122,1111122' 
TCOON,ioos:station:TCOON:057:1,2012-09-06T03:00:00Z,28.4460,-96.3961,0.0,7.7,170.0,,'1111122,1111122,1111122' 
TCOON,ioos:station:TCOON:057:1,2012-09-06T04:00:00Z,28.4460,-96.3961,0.0,6.2,170.0,,'1111122,1111122,1111122' 
TCOON,ioos:station:TCOON:057:1,2012-09-06T05:00:00Z,28.4460,-96.3961,0.0,6.7,170.0,,'1111122,1111122,1111122' 
TCOON,ioos:station:TCOON:057:1,2012-09-06T06:00:00Z,28.4460,-96.3961,0.0,7.7,180.0,,'1111122,1111122,1111122' 
TCOON,ioos:station:TCOON:057:1,2012-09-06T07:00:00Z,28.4460,-96.3961,0.0,6.2,200.0,,'1111122,1111122,1111122' 
TCOON,ioos:station:TCOON:057:1,2012-09-06T08:00:00Z,28.4460,-96.3961,0.0,4.6,210.0,,'1111122,1111122,1111122' 
TCOON,ioos:station:TCOON:057:1,2012-09-06T09:00:00Z,28.4460,-96.3961,0.0,5.1,220.0,,'1111122,1111122,1111122' 
TCOON,ioos:station:TCOON:057:1,2012-09-06T10:00:00Z,28.4460,-96.3961,0.0,4.6,210.0,,'1111122,1111122,1111122' 
TCOON,ioos:station:TCOON:057:1,2012-09-06T11:00:00Z,28.4460,-96.3961,0.0,3.6,210.0,,'1111122,1111122,1111122' 
TCOON,ioos:station:TCOON:057:1,2012-09-06T12:00:00Z,28.4460,-96.3961,0.0,2.6,210.0,,'1111122,1111122,1111122' 
TCOON,ioos:station:TCOON:057:1,2012-09-06T13:00:00Z,28.4460,-96.3961,0.0,2.1,220.0,,'1111122,1111122,1111122' 
TCOON,ioos:station:TCOON:057:1,2012-09-06T14:00:00Z,28.4460,-96.3961,0.0,3.1,230.0,,'1111122,1111122,1111122' 
TCOON,ioos:station:TCOON:057:1,2012-09-06T15:00:00Z,28.4460,-96.3961,0.0,3.1,250.0,,'1111122,1111122,1111122' 
TCOON,ioos:station:TCOON:057:1,2012-09-06T16:00:00Z,28.4460,-96.3961,0.0,3.6,220.0,,'1111122,1111122,1111122' 
TCOON,ioos:station:TCOON:057:1,2012-09-06T17:00:00Z,28.4460,-96.3961,0.0,4.1,210.0,,'1111122,1111122,1111122' 
TCOON,ioos:station:TCOON:057:1,2012-09-06T18:00:00Z,28.4460,-96.3961,0.0,6.7,180.0,,'1111122,1111122,1111122' 
TCOON,ioos:station:TCOON:057:1,2012-09-06T19:00:00Z,28.4460,-96.3961,0.0,5.1,160.0,,'1111122,1111122,1111122' 
TCOON,ioos:station:TCOON:057:1,2012-09-06T20:00:00Z,28.4460,-96.3961,0.0,4.6,160.0,,'1111122,1111122,1111122' 
TCOON,ioos:station:TCOON:057:1,2012-09-06T21:00:00Z,28.4460,-96.3961,0.0,6.2,170.0,,'1111122,1111122,1111122' 
TCOON,ioos:station:TCOON:057:1,2012-09-06T22:00:00Z,28.4460,-96.3961,0.0,6.2,180.0,,'1111122,1111122,1111122' 
TCOON,ioos:station:TCOON:057:1,2012-09-06T23:00:00Z,28.4460,-96.3961,0.0,6.7,180.0,,'1111122,1111122,1111122' 
TCOON,ioos:station:TCOON:057:1,2012-09-07T00:00:00Z,28.4460,-96.3961,0.0,4.6,160.0,,'1111122,1111122,1111122' 
TCOON,ioos:station:TCOON:057:1,2012-09-07T01:00:00Z,28.4460,-96.3961,0.0,6.2,170.0,,'1111122,1111122,1111122' 
TCOON,ioos:station:TCOON:057:1,2012-09-07T02:00:00Z,28.4460,-96.3961,0.0,5.7,180.0,,'1111122,1111122,1111122' 
TCOON,ioos:station:TCOON:057:1,2012-09-07T03:00:00Z,28.4460,-96.3961,0.0,6.2,190.0,,'1111122,1111122,1111122' 
TCOON,ioos:station:TCOON:057:1,2012-09-07T04:00:00Z,28.4460,-96.3961,0.0,6.7,190.0,,'1111122,1111122,1111122' 
TCOON,ioos:station:TCOON:057:1,2012-09-07T05:00:00Z,28.4460,-96.3961,0.0,6.7,180.0,,'1111122,1111122,1111122' 
TCOON,ioos:station:TCOON:057:1,2012-09-07T06:00:00Z,28.4460,-96.3961,0.0,7.2,190.0,,'1111122,1111122,1111122' 
TCOON,ioos:station:TCOON:057:1,2012-09-07T07:00:00Z,28.4460,-96.3961,0.0,5.1,200.0,,'1111122,1111122,1111122' 
TCOON,ioos:station:TCOON:057:1,2012-09-07T08:00:00Z,28.4460,-96.3961,0.0,3.6,210.0,,'1111122,1111122,1111122' 
TCOON,ioos:station:TCOON:057:1,2012-09-07T09:00:00Z,28.4460,-96.3961,0.0,3.1,210.0,,'1111122,1111122,1111122' 
TCOON,ioos:station:TCOON:057:1,2012-09-07T10:00:00Z,28.4460,-96.3961,0.0,4.1,210.0,,'1111122,1111122,1111122' 
TCOON,ioos:station:TCOON:057:1,2012-09-07T11:00:00Z,28.4460,-96.3961,0.0,3.1,210.0,,'1111122,1111122,1111122' 
TCOON,ioos:station:TCOON:057:1,2012-09-07T12:00:00Z,28.4460,-96.3961,0.0,2.6,210.0,,'1111122,1111122,1111122' 
TCOON,ioos:station:TCOON:057:1,2012-09-07T13:00:00Z,28.4460,-96.3961,0.0,2.1,210.0,,'1111122,1111122,1111122' 
TCOON,ioos:station:TCOON:057:1,2012-09-07T14:00:00Z,28.4460,-96.3961,0.0,4.6,220.0,,'1111122,1111122,1111122' 
TCOON,ioos:station:TCOON:057:1,2012-09-07T15:00:00Z,28.4460,-96.3961,0.0,5.7,240.0,,'1111122,1111122,1111122' 
TCOON,ioos:station:TCOON:057:1,2012-09-07T16:00:00Z,28.4460,-96.3961,0.0,5.7,230.0,,'1111122,1111122,1111122' 
TCOON,ioos:station:TCOON:057:1,2012-09-07T17:00:00Z,28.4460,-96.3961,0.0,6.2,240.0,,'1111122,1111122,1111122' 
TCOON,ioos:station:TCOON:057:1,2012-09-07T18:00:00Z,28.4460,-96.3961,0.0,5.7,240.0,,'1111122,1111122,1111122' 
TCOON,ioos:station:TCOON:057:1,2012-09-07T19:00:00Z,28.4460,-96.3961,0.0,5.1,220.0,,'1111122,1111122,1111122' 
TCOON,ioos:station:TCOON:057:1,2012-09-07T20:00:00Z,28.4460,-96.3961,0.0,5.1,200.0,,'1111122,1111122,1111122' 
TCOON,ioos:station:TCOON:057:1,2012-09-07T21:00:00Z,28.4460,-96.3961,0.0,5.7,170.0,,'1111122,1111122,1111122' 
TCOON,ioos:station:TCOON:057:1,2012-09-07T22:00:00Z,28.4460,-96.3961,0.0,5.7,180.0,,'1111122,1111122,1111122' 
TCOON,ioos:station:TCOON:057:1,2012-09-07T23:00:00Z,28.4460,-96.3961,0.0,6.2,180.0,,'1111122,1111122,1111122' 
TCOON,ioos:station:TCOON:057:1,2012-09-08T00:00:00Z,28.4460,-96.3961,0.0,5.7,180.0,,'1111122,1111122,1111122' 
TCOON,ioos:station:TCOON:057:1,2012-09-08T01:00:00Z,28.4460,-96.3961,0.0,5.7,170.0,,'1111122,1111122,1111122' 
TCOON,ioos:station:TCOON:057:1,2012-09-08T02:00:00Z,28.4460,-96.3961,0.0,6.2,160.0,,'1111122,1111122,1111122' 
TCOON,ioos:station:TCOON:057:1,2012-09-08T03:00:00Z,28.4460,-96.3961,0.0,6.2,170.0,,'1111122,1111122,1111122' 
TCOON,ioos:station:TCOON:057:1,2012-09-08T04:00:00Z,28.4460,-96.3961,0.0,6.2,180.0,,'1111122,1111122,1111122' 
TCOON,ioos:station:TCOON:057:1,2012-09-08T05:00:00Z,28.4460,-96.3961,0.0,7.2,190.0,,'1111122,1111122,1111122' 
TCOON,ioos:station:TCOON:057:1,2012-09-08T06:00:00Z,28.4460,-96.3961,0.0,6.2,200.0,,'1111122,1111122,1111122' 
TCOON,ioos:station:TCOON:057:1,2012-09-08T07:00:00Z,28.4460,-96.3961,0.0,5.1,200.0,,'1111122,1111122,1111122' 
TCOON,ioos:station:TCOON:057:1,2012-09-08T08:00:00Z,28.4460,-96.3961,0.0,5.7,210.0,,'1111122,1111122,1111122' 
TCOON,ioos:station:TCOON:057:1,2012-09-08T09:00:00Z,28.4460,-96.3961,0.0,6.2,210.0,,'1111122,1111122,1111122' 
TCOON,ioos:station:TCOON:057:1,2012-09-08T10:00:00Z,28.4460,-96.3961,0.0,5.1,210.0,,'1111122,1111122,1111122' 
TCOON,ioos:station:TCOON:057:1,2012-09-08T11:00:00Z,28.4460,-96.3961,0.0,7.2,220.0,,'1111122,1111122,1111122' 
TCOON,ioos:station:TCOON:057:1,2012-09-08T12:00:00Z,28.4460,-96.3961,0.0,5.7,240.0,,'1111122,1111122,1111122' 
TCOON,ioos:station:TCOON:057:1,2012-09-08T13:00:00Z,28.4460,-96.3961,0.0,3.6,310.0,,'1111122,1111122,1111122' 
TCOON,ioos:station:TCOON:057:1,2012-09-08T14:00:00Z,28.4460,-96.3961,0.0,5.7,330.0,,'1111122,1111122,1111122' 
TCOON,ioos:station:TCOON:057:1,2012-09-08T15:00:00Z,28.4460,-96.3961,0.0,5.7,310.0,,'1111122,1111122,1111122' 
TCOON,ioos:station:TCOON:057:1,2012-09-08T16:00:00Z,28.4460,-96.3961,0.0,4.6,270.0,,'1111122,1111122,1111122' 
TCOON,ioos:station:TCOON:057:1,2012-09-08T17:00:00Z,28.4460,-96.3961,0.0,4.1,300.0,,'1111122,1111122,1111122' 
TCOON,ioos:station:TCOON:057:1,2012-09-08T18:00:00Z,28.4460,-96.3961,0.0,3.1,360.0,,'1111122,1111122,1111122' 
TCOON,ioos:station:TCOON:057:1,2012-09-08T19:00:00Z,28.4460,-96.3961,0.0,4.6,340.0,,'1111122,1111122,1111122' 
TCOON,ioos:station:TCOON:057:1,2012-09-08T20:00:00Z,28.4460,-96.3961,0.0,3.6,360.0,,'1111122,1111122,1111122' 
TCOON,ioos:station:TCOON:057:1,2012-09-08T21:00:00Z,28.4460,-96.3961,0.0,2.6,10.0,,'1111122,1111122,1111122' 
TCOON,ioos:station:TCOON:057:1,2012-09-08T22:00:00Z,28.4460,-96.3961,0.0,4.6,20.0,,'1111122,1111122,1111122' 
TCOON,ioos:station:TCOON:057:1,2012-09-08T23:00:00Z,28.4460,-96.3961,0.0,8.7,10.0,,'1111122,1111122,1111122' 
TCOON,ioos:station:TCOON:057:1,2012-09-09T00:00:00Z,28.4460,-96.3961,0.0,9.3,30.0,,'1111122,1111122,1111122' 
TCOON,ioos:station:TCOON:057:1,2012-09-09T01:00:00Z,28.4460,-96.3961,0.0,8.2,27.0,9.4,'11111222,11111222,11111222' 
TCOON,ioos:station:TCOON:057:1,2012-09-09T02:00:00Z,28.4460,-96.3961,0.0,10.3,20.0,,'1111122,1111122,1111122' 
TCOON,ioos:station:TCOON:057:1,2012-09-09T03:00:00Z,28.4460,-96.3961,0.0,9.8,30.0,,'1111122,1111122,1111122' 
TCOON,ioos:station:TCOON:057:1,2012-09-09T04:00:00Z,28.4460,-96.3961,0.0,10.8,30.0,,'1111122,1111122,1111122' 
TCOON,ioos:station:TCOON:057:1,2012-09-09T06:00:00Z,28.4460,-96.3961,0.0,9.8,40.0,,'1111122,1111122,1111122' 
TCOON,ioos:station:TCOON:057:1,2012-09-09T07:00:00Z,28.4460,-96.3961,0.0,9.3,50.0,,'1111122,1111122,1111122' 
TCOON,ioos:station:TCOON:057:1,2012-09-09T08:00:00Z,28.4460,-96.3961,0.0,8.2,50.0,,'1111122,1111122,1111122' 
TCOON,ioos:station:TCOON:057:1,2012-09-09T09:00:00Z,28.4460,-96.3961,0.0,7.7,50.0,,'1111122,1111122,1111122' 
TCOON,ioos:station:TCOON:057:1,2012-09-09T10:00:00Z,28.4460,-96.3961,0.0,7.5,52.0,8.4,'11111222,11111222,11111222' 
TCOON,ioos:station:TCOON:057:1,2012-09-09T11:00:00Z,28.4460,-96.3961,0.0,6.3,21.0,7.2,'11111222,11111222,11111222' 
TCOON,ioos:station:TCOON:057:1,2012-09-09T12:00:00Z,28.4460,-96.3961,0.0,6.8,26.0,7.9,'11111222,11111222,11111222' 
TCOON,ioos:station:TCOON:057:1,2012-09-09T13:00:00Z,28.4460,-96.3961,0.0,6.7,40.0,,'1111122,1111122,1111122' 
TCOON,ioos:station:TCOON:057:1,2012-09-09T14:00:00Z,28.4460,-96.3961,0.0,7.2,50.0,,'1111122,1111122,1111122' 
TCOON,ioos:station:TCOON:057:1,2012-09-09T15:00:00Z,28.4460,-96.3961,0.0,6.2,60.0,,'1111122,1111122,1111122' 
TCOON,ioos:station:TCOON:057:1,2012-09-09T16:00:00Z,28.4460,-96.3961,0.0,6.2,50.0,,'1111122,1111122,1111122' 
TCOON,ioos:station:TCOON:057:1,2012-09-09T17:00:00Z,28.4460,-96.3961,0.0,6.2,50.0,,'1111122,1111122,1111122' 
TCOON,ioos:station:TCOON:057:1,2012-09-09T18:00:00Z,28.4460,-96.3961,0.0,5.7,40.0,,'1111122,1111122,1111122' 
TCOON,ioos:station:TCOON:057:1,2012-09-09T19:00:00Z,28.4460,-96.3961,0.0,4.6,40.0,,'1111122,1111122,1111122' 
TCOON,ioos:station:TCOON:057:1,2012-09-09T20:00:00Z,28.4460,-96.3961,0.0,5.1,60.0,,'1111122,1111122,1111122' 
TCOON,ioos:station:TCOON:057:1,2012-09-09T21:00:00Z,28.4460,-96.3961,0.0,5.7,110.0,,'1111122,1111122,1111122' 
TCOON,ioos:station:TCOON:057:1,2012-09-09T22:00:00Z,28.4460,-96.3961,0.0,6.7,120.0,,'1111122,1111122,1111122' 